Regional Weather Roundup
Issued by NWS Albany, NY

Home | Current Version | Previous Version | Text Only | Print | Product List | Glossary On
Versions: 1 2 3 4 5 6 7 8 9 10 11 12 13 14 15 16 17 18 19 20 21 22 23 24 25 26 27
000
ASUS41 KALY 270210
RWRALY

NEW YORK STATE HOURLY WEATHER ROUNDUP
NATIONAL WEATHER SERVICE ALBANY NY
1000 PM EDT THU MAY 26 2016

NOTE: "FAIR" INDICATES FEW OR NO CLOUDS BELOW 12,000 FEET WITH NO
SIGNIFICANT WEATHER AND/OR NO OBSTRUCTIONS TO VISIBILITY.

NYZ032-033-038>043-046>054-057>066-NYZ062>081-082-084-270300-
EAST


CITY           SKY/WX    TMP DP  RH WIND       PRES   REMARKS
ALBANY         CLOUDY    77  55  46 S3        30.01R
GLENS FALLS    CLOUDY    72  61  68 CALM      30.01R
POUGHKEEPSIE   CLEAR     74  56  53 E3        30.02R
NEWBURGH       CLEAR     79  48  34 S7        30.05R
MONTGOMERY     PTCLDY    69  60  73 CALM      30.03R
WHITE PLAINS   CLEAR     70  50  49 SE3       30.06R
ISLIP          MOCLDY    67  56  67 S6        30.08R
NEW YORK CITY  MOCLDY    75  61  61 S9        30.05R
CENTRAL PARK   PTCLDY    76  50  40 VRB3      30.07S
$$

NYZ005>009-017-018-044>046-055-056-270300-
CENTRAL


CITY           SKY/WX    TMP DP  RH WIND       PRES   REMARKS
FULTON         PTCLDY    67  64  90 SE3       29.99R FOG
SYRACUSE       CLOUDY    73  60  63 CALM      29.98R
ROME           CLOUDY    72  60  66 SE5       30.00R
ELMIRA         PTCLDY    73  58  59 W6        30.01R
BINGHAMTON     CLEAR     72  55  55 S6        30.05R
MONTICELLO     CLEAR     72  55  56 S3        30.10R
$$

NYZ026>034-041>043-087-270300-
NORTH


CITY           SKY/WX    TMP DP  RH WIND       PRES   REMARKS
WATERTOWN      PTCLDY    66  60  81 CALM      29.97R
FORT DRUM      NOT AVBL
MASSENA        LGT RAIN  68  51  54 E8        29.98S
SARANAC LAKE   MOCLDY    64  49  57 NE5       30.05R
PLATTSBURGH    CLOUDY    66  54  65 CALM      30.01S
$$

NYZ001>004-010>016-019>021-085-270300-
WEST


CITY           SKY/WX    TMP DP  RH WIND       PRES   REMARKS
NIAGARA FALLS  CLOUDY    72  61  68 S7        29.95S
BUFFALO        CLOUDY    74  61  63 S5        29.97S
DUNKIRK        CLEAR     67  63  87 SE3       29.98R
JAMESTOWN      CLOUDY    70  63  78 S6        30.03S
WELLSVILLE     PTCLDY    68  61  78 CALM      30.08R
ROCHESTER      PTCLDY    70  64  81 S6        29.99R
PENN YAN       CLOUDY    65  61  87 S3        30.02R
$$

             KEY
       WCI = WIND CHILL INDEX
       VSB = VISIBILITY
       HX  = HEAT INDEX
$$




USA.gov is the U.S. government's official web portal to all federal, state and local government web resources and services.